This is the latest recevied weather packets stored in our database for station/object KX4O-13. If no packets are shown the sender has not sent any weather packets the latest 10 day(s).
| Time | Temp. | Humidity | Pressure | Rain* | Wind** | Luminosity | Snow |
|---|---|---|---|---|---|---|---|
| 1778004655 | 27.22° C | 33% | 1010.3 hPa | 0 mm | - | 842 W/m² | - |
| 1778004353 | 27.22° C | 34% | 1010.5 hPa | 0 mm | - | 828 W/m² | - |
| 1778004053 | 27.22° C | 35% | 1010.5 hPa | 0 mm | - | 824 W/m² | - |
| 1778003753 | 27.22° C | 35% | 1010.4 hPa | 0 mm | - | 838 W/m² | - |
| 1778003453 | 27.22° C | 35% | 1010.6 hPa | 0 mm | - | 844 W/m² | - |
| 1778003153 | 27.22° C | 36% | 1010.6 hPa | 0 mm | - | 865 W/m² | - |
| 1778002853 | 27.22° C | 37% | 1010.6 hPa | 0 mm | - | 856 W/m² | - |
| 1778002553 | 27.22° C | 39% | 1010.6 hPa | 0 mm | - | 810 W/m² | - |
| 1778002255 | 27.22° C | 38% | 1010.8 hPa | 0 mm | - | 828 W/m² | - |
| 1778001953 | 27.22° C | 37% | 1010.8 hPa | 0 mm | - | 826 W/m² | - |
| 1778001653 | 27.22° C | 37% | 1010.7 hPa | 0 mm | - | 823 W/m² | - |
| 1778001353 | 27.22° C | 38% | 1010.8 hPa | 0 mm | - | 868 W/m² | - |
| 1778001053 | 27.22° C | 41% | 1010.9 hPa | 0 mm | - | 867 W/m² | - |
| 1778000753 | 26.67° C | 40% | 1010.8 hPa | 0 mm | - | 870 W/m² | - |
| 1778000453 | 26.11° C | 39% | 1010.8 hPa | 0 mm | - | 867 W/m² | - |
| 1778000153 | 26.11° C | 38% | 1011 hPa | 0 mm | - | 854 W/m² | - |
| 1777999855 | 26.67° C | 38% | 1011 hPa | 0 mm | - | 856 W/m² | - |
| 1777999553 | 26.67° C | 41% | 1011.1 hPa | 0 mm | - | 856 W/m² | - |
| 1777999253 | 26.11° C | 40% | 1011.1 hPa | 0 mm | - | 851 W/m² | - |
| 1777998953 | 26.11° C | 39% | 1011.3 hPa | 0 mm | - | 844 W/m² | - |
| 1777998655 | 26.11° C | 39% | 1011.3 hPa | 0 mm | - | 842 W/m² | - |
| 1777998353 | 26.11° C | 41% | 1011.4 hPa | 0 mm | - | 842 W/m² | - |
| 1777998053 | 26.11° C | 40% | 1011.5 hPa | 0 mm | - | 837 W/m² | - |
| 1777997753 | 25.56° C | 43% | 1011.6 hPa | 0 mm | - | 830 W/m² | - |
| 1777997453 | 26.11° C | 40% | 1011.7 hPa | 0 mm | - | 828 W/m² | - |
* Rain latest hour (hover to see other rain measurements)
** Current wind speed in m/s (hover to see current wind gust speed)